Location: Highridge
(54.0333°N, 114.1333°W)
Time: 04:01:15
(UTC+00:00)

BlueWalker 3 - Visible Passes

Search period start: 19 June 2024 00:00
Search period end: 29 June 2024 00:00
Orbit: 480 x 494 km, 53.2° (Epoch: 18 June)

Date Brightness Start Highest point End Pass type
(mag) Time Alt. Az. Time Alt. Az. Time Alt. Az.
19 Jun 2.4 05:41:30 10° SW 05:44:57 36° SSE 05:48:25 10° E visible
19 Jun 1.7 07:19:07 10° WSW 07:22:52 76° S 07:26:37 10° E visible
19 Jun 1.8 08:57:15 10° W 09:00:58 68° SSW 09:04:42 10° ESE visible
20 Jun 2.5 05:15:52 10° SW 05:19:17 34° SSE 05:22:43 10° E visible
20 Jun 1.7 06:53:26 10° WSW 06:57:11 75° S 07:00:56 10° E visible
20 Jun 1.7 08:31:33 10° W 08:35:17 69° SSW 08:39:01 10° ESE visible
21 Jun 1.7 06:27:44 10° WSW 06:31:29 74° S 06:35:14 10° E visible
21 Jun 1.7 08:05:52 10° W 08:09:36 71° SSW 08:13:19 10° ESE visible
21 Jun 2.7 09:44:08 10° W 09:47:26 29° SSW 09:50:42 10° SSE visible
22 Jun 1.7 06:02:02 10° WSW 06:05:48 73° SSE 06:09:32 10° E visible
22 Jun 1.7 07:40:09 10° W 07:43:54 72° S 07:47:38 10° ESE visible
22 Jun 2.6 09:18:25 10° W 09:21:45 31° SSW 09:25:04 10° SSE visible
23 Jun 1.8 05:36:20 10° WSW 05:40:05 72° S 05:43:49 10° E visible
23 Jun 1.7 07:14:26 10° W 07:18:11 73° S 07:21:55 10° ESE visible
23 Jun 2.5 08:52:41 10° W 08:56:03 32° SSW 08:59:24 10° SE visible
24 Jun 1.8 05:10:37 10° WSW 05:14:21 70° SSE 05:18:06 10° E visible
24 Jun 1.7 06:48:43 10° W 06:52:28 74° S 06:56:12 10° ESE visible
24 Jun 2.5 08:26:56 10° W 08:30:20 33° SSW 08:33:44 10° SE visible
25 Jun 1.7 06:22:58 10° W 06:26:43 75° S 06:30:28 10° ESE visible
25 Jun 2.5 08:01:12 10° W 08:04:37 35° SSW 08:07:28 14° SSE visible
26 Jun 1.8 05:57:14 10° W 06:01:00 76° S 06:04:44 10° ESE visible
26 Jun 2.4 07:35:26 10° W 07:38:54 36° SSW 07:41:16 17° SSE visible
27 Jun 1.8 05:31:29 10° W 05:35:14 77° S 05:38:59 10° ESE visible
27 Jun 2.4 07:09:40 10° W 07:13:10 37° SSW 07:15:27 18° SSE visible
27 Jun 4.1 08:49:38 10° WSW 08:49:45 10° WSW 08:49:45 10° WSW visible
28 Jun 1.8 05:05:43 10° W 05:09:29 78° S 05:13:13 10° E visible
28 Jun 2.4 06:43:54 10° W 06:47:25 39° SSW 06:49:51 17° SE visible
28 Jun 4.1 08:23:33 10° WSW 08:24:10 11° SW 08:24:10 11° SW visible
